Location: Unspecified
(0.0000°N, 0.0000°E)
Time: 17:44:53
(UTC+00:00)

Vanguard 3 - Pass Details

Date: 02 February 2023
Orbit: 509 x 3249 km, 33.3° (Epoch: 20 March)

Event Time Altitude Azimuth Distance (km) Brightness Sun altitude
Rises 16:02:09 0° 254° (WSW) 2,846 11.1 31.3°
Reaches altitude 10° 16:04:12 10° 263° (W) 2,101 10.7 30.8°
Maximum altitude 16:08:38 38° 332° (NNW) 1,321 8.6 29.8°
Drops below altitude 10° 16:15:40 10° 38° (NE) 3,338 9.9 28.1°
Sets 16:19:48 0° 45° (NE) 4,801 10.6 27.2°
